Weather History for Glens Falls, NY

Change the Weather History Date:

Saturday, February 9, 2013

  Actual Average Record
Temperature  
Mean Temperature 8 °F 20 °F  
Max Temperature 24 °F 31 °F 47 °F (1990)
Min Temperature -9 °F 8 °F -16 °F (1994)
Degree Days  
Heating Degree Days 57 45  
Month to date heating degree days 433 413  
Since 1 July heating degree days 4378 4809  
Cooling Degree Days 0 0  
Month to date cooling degree days 0 0  
Year to date cooling degree days 0 0  
Moisture  
Dew Point 6 °F    
Average Humidity 64    
Maximum Humidity 88    
Minimum Humidity 39    
Precipitation  
Precipitation 0.02 in 0.07 in 0.64 in (1950)
Month to date precipitation 0.13 0.69  
Year to date precipitation 1.41 3.55  
Sea Level Pressure  
Sea Level Pressure 30.09 in    
Wind  
Wind Speed 9 mph (NNE)    
Max Wind Speed 25 mph    
Max Gust Speed 31 mph    
Visibility 7 miles    
Events Snow    
T = Trace of Precipitation, MM = Missing Value Source: NWS Daily Summary

Daily Weather History Graph

Daily Weather History Graph

Search for Another Location

Airport:

Trip Planner

Search our weather history database for the weather conditions in past years. The results will help you decide how hot, cold, wet, or windy it might be!

Date:

Astronomy

Feb. 09, 2013 Rise Set
Actual Time 7:00 AM EST 5:17 PM EST
Civil Twilight 6:30 AM EST 5:47 PM EST
Nautical Twilight 5:57 AM EST 6:20 PM EST
Astronomical Twilight 5:23 AM EST 6:54 PM EST
Moon 6:10 AM EST (2/9) 4:58 PM EST (2/9)
Length of Visible Light 11h 16m
Length of Day
10h 17m
Waning Crescent, 0% of the Moon is Illuminated
Feb 9
Waning Crescent
Feb 10
New
Feb 17
First Quarter
Feb 25
Full
Mar 4
Last Quarter

Hourly Weather History & Observations

Time (EST) Temp. Windchill Dew Point Humidity Pressure Visibility Wind Dir Wind Speed Gust Speed Precip Events Conditions
12:01 AM 23.0 °F 10.1 °F 19.4 °F 86% 29.85 in 2.5 mi North 15.0 mph 20.7 mph 0.00 in Snow Light Snow
12:27 AM 23.0 °F 15.8 °F 19.4 °F 86% 29.86 in 1.8 mi North 5.8 mph - 0.00 in Snow Light Snow
12:53 AM 23.0 °F 13.9 °F 19.0 °F 85% 29.90 in 1.2 mi North 8.1 mph - 0.00 in Snow Light Snow
1:02 AM 21.2 °F 13.6 °F 19.4 °F 93% 29.88 in 1.0 mi North 5.8 mph - 0.00 in Snow Light Snow
1:24 AM 21.2 °F 8.9 °F 17.6 °F 86% 29.89 in 1.2 mi North 12.7 mph - 0.01 in Snow Light Snow
1:53 AM 21.0 °F 8.6 °F 18.0 °F 88% 29.94 in 1.0 mi North 12.7 mph - 0.01 in Snow Light Snow
2:17 AM 19.4 °F 7.9 °F 15.8 °F 86% 29.91 in 1.2 mi North 10.4 mph - 0.01 in Snow Light Snow
2:53 AM 19.0 °F 5.6 °F 15.1 °F 85% 29.94 in 1.8 mi North 13.8 mph - 0.01 in Snow Light Snow
3:02 AM 19.4 °F 6.0 °F 15.8 °F 86% 29.91 in 2.5 mi North 13.8 mph - 0.00 in Snow Light Snow
3:12 AM 19.4 °F 6.6 °F 14.0 °F 80% 29.92 in 3.0 mi North 12.7 mph - 0.00 in Snow Light Snow
3:34 AM 19.4 °F 4.5 °F 12.2 °F 74% 29.93 in 4.0 mi North 17.3 mph - 0.00 in Snow Light Snow
3:53 AM 18.0 °F 6.1 °F 12.9 °F 81% 29.96 in 7.0 mi North 10.4 mph - 0.00 in Snow Light Snow
4:37 AM 17.6 °F 4.3 °F 10.4 °F 73% 29.94 in 2.5 mi North 12.7 mph - 0.00 in Snow Light Snow
4:45 AM 17.6 °F 1.3 °F 10.4 °F 73% 29.94 in 9.0 mi North 19.6 mph 26.5 mph 0.00 in   Overcast
4:53 AM 18.0 °F 2.6 °F 9.0 °F 68% 29.98 in 9.0 mi North 17.3 mph 26.5 mph 0.00 in   Overcast
5:53 AM 17.1 °F 3.6 °F 8.1 °F 68% 30.00 in 10.0 mi NNE 12.7 mph 19.6 mph 0.00 in   Overcast
6:53 AM 15.1 °F 1.1 °F 7.0 °F 70% 30.03 in 10.0 mi NNE 12.7 mph 20.7 mph N/A   Mostly Cloudy
7:53 AM 15.1 °F 1.1 °F 5.0 °F 64% 30.07 in 10.0 mi NNE 12.7 mph - N/A   Overcast
8:53 AM 14.0 °F -1.4 °F 3.0 °F 62% 30.11 in 8.0 mi NNE 15.0 mph 26.5 mph N/A   Overcast
9:53 AM 15.8 °F 1.4 °F -0.4 °F 49% 30.10 in 10.0 mi NNE 13.8 mph 24.2 mph N/A   Mostly Cloudy
10:53 AM 16.0 °F 1.1 °F -2.0 °F 45% 30.16 in 10.0 mi NNE 15.0 mph - N/A   Clear
11:53 AM 19.9 °F 4.8 °F -2.0 °F 38% 30.16 in 10.0 mi North 18.4 mph 23.0 mph N/A   Clear
12:53 PM 19.0 °F 7.5 °F -0.0 °F 43% 30.16 in 10.0 mi NE 10.4 mph - N/A   Clear
1:53 PM 21.0 °F 9.9 °F -0.0 °F 40% 30.17 in 10.0 mi NE 10.4 mph - N/A   Clear
2:53 PM 19.0 °F 6.8 °F 1.0 °F 46% 30.19 in 10.0 mi ENE 11.5 mph - N/A   Clear
3:53 PM 18.0 °F 5.4 °F 1.0 °F 48% 30.21 in 10.0 mi East 11.5 mph - N/A   Clear
4:53 PM 16.0 °F 2.3 °F -0.9 °F 47% 30.25 in 10.0 mi ENE 12.7 mph - N/A   Clear
5:53 PM 12.9 °F - -0.9 °F 54% 30.30 in 10.0 mi Calm Calm - N/A   Clear
6:53 PM 8.1 °F - -2.9 °F 61% 30.33 in 10.0 mi Calm Calm - N/A   Clear
7:53 PM 1.0 °F - -6.0 °F 72% 30.36 in 10.0 mi Calm Calm - N/A   Clear
8:53 PM 1.0 °F - -6.0 °F 72% 30.38 in 10.0 mi Calm Calm - N/A   Clear
9:53 PM -2.9 °F - -8.0 °F 79% 30.39 in 10.0 mi Calm Calm - N/A   Clear
10:53 PM -5.1 °F - -11.0 °F 76% 30.40 in 10.0 mi Calm Calm - N/A   Clear
11:53 PM -7.1 °F - -11.9 °F 79% 30.42 in 10.0 mi Calm Calm - N/A   Clear